TimeEDT,TemperatureF,Dew PointF,Humidity,Sea Level PressureIn,VisibilityMPH,Wind Direction,Wind SpeedMPH,Gust SpeedMPH,PrecipitationIn,Events,Conditions,WindDirDegrees,DateUTC
12:07 AM,51.8,46.4,82,29.56,5.0,West,21.9,28.8,0.03,Rain-Thunderstorm,Light Rain,270,2011-10-15 04:07:00
12:22 AM,53.6,46.4,77,29.56,10.0,West,21.9,34.5,0.03,Rain,Light Rain,260,2011-10-15 04:22:00
12:53 AM,51.8,44.6,76,29.56,10.0,WSW,20.7,29.9,N/A,Rain,Light Rain,240,2011-10-15 04:53:00
1:53 AM,51.1,44.1,77,29.56,10.0,SW,16.1,20.7,0.00,,Overcast,230,2011-10-15 05:53:00
2:53 AM,50.0,42.1,74,29.57,10.0,SW,17.3,-,N/A,,Scattered Clouds,230,2011-10-15 06:53:00
3:53 AM,50.0,39.9,68,29.57,10.0,SW,15.0,-,N/A,,Partly Cloudy,230,2011-10-15 07:53:00
4:53 AM,50.0,42.1,74,29.56,10.0,SSW,17.3,26.5,0.00,,Mostly Cloudy,210,2011-10-15 08:53:00
5:53 AM,50.0,42.1,74,29.56,10.0,SW,17.3,28.8,0.00,Rain,Light Rain,220,2011-10-15 09:53:00
6:25 AM,50.0,42.8,76,29.55,10.0,SW,23.0,31.1,0.00,Rain-Thunderstorm,Light Rain,220,2011-10-15 10:25:00
6:43 AM,50.0,42.8,76,29.55,10.0,SW,18.4,31.1,0.00,Rain,Light Rain,230,2011-10-15 10:43:00
6:53 AM,50.0,43.0,77,29.55,10.0,SW,21.9,33.4,0.00,,Overcast,230,2011-10-15 10:53:00
7:53 AM,50.0,42.1,74,29.55,10.0,SW,20.7,34.5,N/A,,Overcast,230,2011-10-15 11:53:00
8:53 AM,52.0,41.0,66,29.57,10.0,WSW,28.8,41.4,N/A,,Overcast,240,2011-10-15 12:53:00
9:53 AM,51.8,42.8,71,29.59,10.0,WSW,28.8,38.0,N/A,,Overcast,240,2011-10-15 13:53:00
10:53 AM,52.0,42.1,69,29.61,10.0,WSW,27.6,36.8,N/A,,Overcast,240,2011-10-15 14:53:00
11:53 AM,53.1,41.0,64,29.63,10.0,WSW,25.3,39.1,N/A,,Overcast,250,2011-10-15 15:53:00
12:53 PM,53.6,39.2,58,29.65,10.0,WSW,26.5,35.7,N/A,,Overcast,250,2011-10-15 16:53:00
1:53 PM,55.4,42.8,63,29.65,10.0,WSW,27.6,34.5,N/A,,Overcast,250,2011-10-15 17:53:00
2:53 PM,57.0,41.0,55,29.66,10.0,WSW,32.2,41.4,N/A,,Overcast,250,2011-10-15 18:53:00
3:53 PM,55.9,39.9,55,29.67,10.0,WSW,29.9,38.0,N/A,,Overcast,250,2011-10-15 19:53:00
4:53 PM,57.9,41.0,53,29.69,10.0,West,31.1,39.1,N/A,,Overcast,260,2011-10-15 20:53:00
5:53 PM,57.9,41.0,53,29.71,10.0,West,33.4,42.6,N/A,,Mostly Cloudy,270,2011-10-15 21:53:00
6:53 PM,57.9,39.9,51,29.73,10.0,West,33.4,39.1,N/A,,Mostly Cloudy,260,2011-10-15 22:53:00
7:53 PM,57.9,39.9,51,29.77,10.0,West,34.5,44.9,N/A,,Partly Cloudy,270,2011-10-15 23:53:00
8:53 PM,57.9,39.9,51,29.80,10.0,West,32.2,39.1,N/A,,Clear,270,2011-10-16 00:53:00
9:53 PM,57.9,42.1,56,29.81,10.0,West,25.3,38.0,N/A,,Partly Cloudy,280,2011-10-16 01:53:00
10:53 PM,53.1,39.9,61,29.84,10.0,WSW,11.5,21.9,N/A,,Scattered Clouds,240,2011-10-16 02:53:00
11:53 PM,51.1,36.0,56,29.85,10.0,SW,11.5,-,N/A,,Scattered Clouds,230,2011-10-16 03:53:00